User: anonymous   Login
Location: Bayshore Village Mobile Home Park
(26.6945°N, 81.8642°W)
Time: 18:44:08
(UTC+00:00)
Language:

SJ 16-02 - Orbit

View from above orbital plane
View from above orbital plane
View from above satellite
View from above satellite

Ground track
Ground track

The orbit data is extracted from the following two-line orbital elements,

1 41634U 16043A   21263.11386084  .00000103  00000-0  14940-4 0  9993
2 41634  75.0032 293.1704 0008849 268.2822  91.7355 14.85843916283509
Epoch (UTC): 20 September 2021 02:43:57
Eccentricity: 0.0008849
inclination: 75.0032°
perigee height: 605 km
apogee height: 617 km
right ascension of ascending node: 293.1704°
argument of perigee: 268.2822°
revolutions per day: 14.85843916
mean anomaly at epoch: 91.7355°
orbit number at epoch: 28350

The dashed part of the orbit path shows where the satellite is in the earth's shadow,  

DLR